Location: Bremen
(53.0793°N, 8.8017°E)
Time: 11:33:24
(UTC+01:00)

deb Explorer IX - Pass Details

Date: 15 December 2021
Orbit: 544 x 1082 km, 38.8° (Epoch: 14 January)

Event Time Altitude Azimuth Distance (km) Brightness Sun altitude
Rises 08:16:04 0° 243° (WSW) 3,590 ? -2.8°
Reaches altitude 10° 08:19:33 10° 227° (SW) 2,539 ? -2.3°
Maximum altitude 08:23:36 19° 185° (S) 1,863 ? -1.9°
Drops below altitude 10° 08:27:16 10° 141° (SE) 2,277 ? -1.4°
Sets 08:30:11 0° 123° (ESE) 3,095 ? -1.1°
